AF1HS Weather Reports


Display with metric or nautical units.
time (UTC)temp
F
wind
direction
speed
MPH
gust
MPH
rain 1hr
in
rain 24hr
in
rain mn
in
humidity
%
barometer
mb
20170727053200 59 131 0.0 0.0 0.00 0.00 0.00 100 1015.0
20170727052148 59 131 0.0 0.0 0.00 0.00 0.00 100 1015.0
20170727051155 59 131 0.0 0.0 0.00 0.00 0.00 100 1015.0
20170727050139 59 131 0.0 0.0 0.00 0.00 0.00 100 1015.0
20170727045202 59 131 0.0 0.0 0.00 0.00 0.00 100 1015.0
20170727044147 59 131 0.0 0.0 0.00 0.00 0.00 100 1015.0
20170727043149 60 131 0.0 0.0 0.00 0.00 0.00 100 1015.0
20170727042146 60 131 0.0 0.0 0.00 0.00 0.00 100 1015.0
20170727041529 60 131 0.0 0.0 0.00 0.00 0.00 100 1015.0
20170727041027 60 131 0.0 0.0 0.00 0.00 0.00 100 1015.0
20170727040640 60 131 0.0 0.0 0.00 0.00 0.00 100 1015.0
20170727035643 60 131 0.0 0.0 0.00 0.00 0.00 100 1016.0
20170727034650 60 131 0.0 0.0 0.00 0.00 0.00 100 1016.0
20170727033147 60 131 0.0 0.0 0.00 0.00 0.00 100 1016.0
20170727032152 61 131 0.0 0.0 0.00 0.00 0.00 100 1016.0
20170727031151 61 131 0.0 0.0 0.00 0.00 0.00 100 1016.0
20170727030139 61 131 0.0 0.0 0.00 0.00 0.00 100 1016.0
20170727025203 61 131 0.0 0.0 0.00 0.00 0.00 100 1016.0
20170727024216 62 131 0.0 0.0 0.00 0.00 0.00 100 1016.0
20170727023645 62 131 0.0 0.0 0.00 0.00 0.00 100 1016.0
20170727022640 62 131 0.0 0.0 0.00 0.00 0.00 100 1016.0
20170727021653 62 131 0.0 0.0 0.00 0.00 0.00 100 1016.0
20170727020651 63 131 0.0 0.0 0.00 0.00 0.00 100 1016.0
20170727015637 63 131 0.0 2.0 0.00 0.00 0.00 98 1016.0
20170727014141 63 131 0.0 0.0 0.00 0.00 0.00 96 1016.0
20170727013145 64 131 0.0 0.0 0.00 0.00 0.00 95 1016.0
20170727012157 64 131 0.0 2.0 0.00 0.00 0.00 93 1016.0
20170727011149 64 131 0.0 0.0 0.00 0.00 0.00 91 1016.0
20170727010141 65 131 0.0 0.0 0.00 0.00 0.00 89 1016.0
20170727005149 65 131 0.0 0.0 0.00 0.00 0.00 87 1016.0
20170727004650 65 131 0.0 3.0 0.00 0.00 0.00 87 1016.0
20170727003702 66 131 0.0 3.0 0.00 0.00 0.00 85 1016.0
20170727002636 66 131 0.0 0.0 0.00 0.00 0.00 82 1016.0
20170727002150 67 131 0.0 0.0 0.00 0.00 0.00 81 1016.0
20170727000203 67 131 1.0 2.0 0.00 0.00 0.00 80 1016.0
20170726235202 68 131 0.0 3.0 0.00 0.00 0.00 78 1016.0
20170726234648 68 149 0.0 3.0 0.00 0.00 0.00 78 1016.0
20170726234148 68 137 2.0 3.0 0.00 0.00 0.00 77 1016.0
20170726233701 69 153 2.0 3.0 0.00 0.00 0.00 77 1016.0
20170726233139 69 122 1.0 6.0 0.00 0.00 0.00 77 1016.0
20170726232208 69 132 2.0 6.0 0.00 0.00 0.00 76 1016.0
20170726231835 69 123 3.0 6.0 0.00 0.00 0.00 76 1016.0
20170726231142 69 130 2.0 6.0 0.00 0.00 0.00 75 1016.0
20170726225654 70 183 3.0 9.0 0.00 0.00 0.00 74 1016.0
20170726224650 70 171 3.0 7.0 0.00 0.00 0.00 72 1016.0
20170726223153 71 165 5.0 9.0 0.00 0.00 0.00 70 1016.0
20170726221215 72 213 5.0 8.0 0.00 0.00 0.00 69 1016.0
20170726220713 73 213 5.0 8.0 0.00 0.00 0.00 68 1016.0
20170726220157 73 191 5.0 6.0 0.00 0.00 0.00 68 1016.0
20170726215641 73 198 4.0 9.0 0.00 0.00 0.00 68 1016.0
20170726214154 74 141 5.0 9.0 0.00 0.00 0.00 66 1016.0
20170726212650 73 189 5.0 9.0 0.00 0.00 0.00 65 1016.0
20170726212201 73 174 5.0 9.0 0.00 0.00 0.00 65 1016.0
20170726210640 74 185 6.0 8.0 0.00 0.00 0.00 59 1016.9
20170726204216 75 194 3.0 8.0 0.00 0.00 0.00 58 1017.0
20170726201148 75 198 5.0 8.0 0.00 0.00 0.00 56 1017.0
20170726200149 76 193 5.0 8.0 0.00 0.00 0.00 56 1017.0
20170726195140 76 163 4.0 7.0 0.00 0.00 0.00 57 1017.0
20170726194145 76 134 3.0 6.0 0.00 0.00 0.00 56 1017.0
20170726192650 76 150 4.0 6.0 0.00 0.00 0.00 57 1017.0
20170726191644 77 169 5.0 8.0 0.00 0.00 0.00 57 1017.0
20170726190838 76 157 3.0 8.0 0.00 0.00 0.00 56 1017.0
20170726190202 76 157 3.0 10.0 0.00 0.00 0.00 57 1017.0
20170726185146 76 161 4.0 10.0 0.00 0.00 0.00 59 1017.0
20170726184201 75 142 6.0 13.0 0.00 0.00 0.00 59 1017.0
20170726183156 76 139 5.0 10.0 0.00 0.00 0.00 59 1017.6
20170726181645 77 162 5.0 10.0 0.00 0.00 0.00 60 1018.0
20170726180642 77 177 4.0 10.0 0.00 0.00 0.00 59 1018.0
20170726175141 78 134 3.0 8.0 0.00 0.00 0.00 61 1018.0
20170726174339 78 183 5.0 8.0 0.00 0.00 0.00 63 1018.0
20170726173138 78 190 6.0 10.0 0.00 0.00 0.00 61 1018.0
20170726172141 79 157 5.0 9.0 0.00 0.00 0.00 60 1018.0
20170726171146 79 186 5.0 8.0 0.00 0.00 0.00 60 1018.0
20170726170140 80 167 2.0 6.0 0.00 0.00 0.00 56 1018.0
20170726165138 79 199 3.0 6.0 0.00 0.04 0.00 55 1018.0
20170726164133 79 68 3.0 8.0 0.00 0.04 0.00 56 1018.0
20170726163141 79 114 2.0 5.0 0.00 0.04 0.00 55 1018.5
20170726162142 79 255 1.0 8.0 0.00 0.04 0.00 57 1019.0
20170726161144 81 135 2.0 6.0 0.00 0.04 0.00 51 1019.0
20170726160142 80 240 1.0 6.0 0.00 0.04 0.00 59 1019.0
20170726154638 78 4 3.0 6.0 0.00 0.08 0.00 54 1019.0
20170726153638 79 227 2.0 6.0 0.00 0.08 0.00 55 1019.0
20170726152638 79 328 1.0 6.0 0.00 0.08 0.00 58 1019.0
20170726151645 78 5 1.0 6.0 0.00 0.16 0.00 55 1019.0
20170726150636 78 36 0.0 6.0 0.00 0.16 0.00 56 1019.0
20170726145646 77 318 2.0 6.0 0.00 0.16 0.00 58 1019.0
20170726144638 78 336 2.0 6.0 0.00 0.16 0.00 56 1019.6
20170726143654 77 325 4.0 6.0 0.00 0.16 0.00 58 1020.0
20170726142642 77 335 3.0 6.0 0.00 0.16 0.00 58 1020.0
20170726141635 76 322 3.0 6.0 0.00 0.16 0.00 60 1020.0
20170726141141 76 344 2.0 6.0 0.00 0.16 0.00 61 1020.0
20170726140150 75 333 4.0 6.0 0.00 0.16 0.00 61 1020.0
20170726135148 74 331 3.0 6.0 0.00 0.16 0.00 66 1020.0
20170726134138 73 356 3.0 6.0 0.00 0.16 0.00 66 1020.0
20170726132644 73 347 4.0 6.0 0.00 0.20 0.00 66 1020.0
20170726131651 71 320 5.0 9.0 0.00 0.20 0.00 67 1020.0
20170726130636 71 351 3.0 7.0 0.00 0.24 0.00 70 1020.0
20170726125834 69 345 3.0 6.0 0.00 0.24 0.00 73 1020.0
20170726125138 69 351 3.0 6.0 0.00 0.24 0.00 73 1020.0
20170726124151 68 7 1.0 5.0 0.00 0.24 0.00 80 1020.0
20170726123152 68 354 2.0 6.0 0.00 0.24 0.00 81 1020.0
20170726122140 67 332 4.0 7.0 0.00 0.24 0.00 86 1020.0
20170726121140 66 318 2.0 8.0 0.00 0.24 0.00 98 1019.0
20170726120140 64 313 2.0 3.0 0.00 0.24 0.00 100 1019.0
20170726115157 64 337 2.0 6.0 0.00 0.24 0.00 100 1019.0
20170726114154 63 336 2.0 6.0 0.00 0.24 0.00 100 1019.0
20170726113145 63 337 2.0 6.0 0.00 0.24 0.00 100 1019.0
20170726112136 64 337 1.0 6.0 0.00 0.24 0.00 100 1019.0
20170726111143 65 339 2.0 3.0 0.00 0.24 0.00 100 1019.0
20170726105643 56 342 1.0 3.0 0.00 0.24 0.00 100 1019.0
20170726105152 56 342 1.0 3.0 0.00 0.24 0.00 100 1019.0
20170726103648 54 350 1.0 3.0 0.00 0.24 0.00 100 1019.0
20170726103152 54 14 0.0 2.0 0.00 0.24 0.00 100 1019.0
20170726102636 54 14 0.0 0.0 0.00 0.28 0.00 100 1019.0
20170726102131 54 14 0.0 0.0 0.00 0.28 0.00 100 1019.0
20170726101138 53 14 0.0 3.0 0.00 0.28 0.00 100 1019.0
20170726100136 54 14 0.0 0.0 0.00 0.28 0.00 100 1019.0
20170726095147 54 14 0.0 0.0 0.00 0.31 0.00 100 1019.0
20170726094145 54 14 0.0 0.0 0.00 0.35 0.00 100 1019.0
20170726092638 54 14 0.0 0.0 0.00 0.39 0.00 100 1019.0
20170726091631 54 14 0.0 0.0 0.00 0.39 0.00 100 1018.4
20170726091230 54 14 0.0 0.0 0.00 0.39 0.00 100 1018.0
20170726090635 54 14 0.0 0.0 0.00 0.43 0.00 100 1018.0
20170726085647 54 14 0.0 0.0 0.00 0.47 0.00 100 1018.0
20170726084840 54 14 0.0 0.0 0.00 0.47 0.00 100 1018.0
20170726084143 54 14 0.0 0.0 0.00 0.47 0.00 100 1018.0
20170726082637 54 14 0.0 0.0 0.00 0.47 0.00 100 1018.0
20170726081640 54 14 0.0 3.0 0.00 0.47 0.00 100 1018.0
20170726080655 54 14 0.0 3.0 0.00 0.47 0.00 100 1018.0
20170726075650 54 14 0.0 0.0 0.00 0.47 0.00 100 1019.0
20170726074637 54 14 0.0 0.0 0.00 0.47 0.00 100 1019.0
20170726073711 55 14 0.0 2.0 0.00 0.47 0.00 100 1019.0
20170726072645 55 14 1.0 2.0 0.00 0.47 0.00 100 1018.0
20170726071637 55 14 0.0 0.0 0.00 0.47 0.00 100 1018.6
20170726070658 55 14 0.0 0.0 0.00 0.47 0.00 100 1019.0
20170726065645 55 14 0.0 0.0 0.00 0.47 0.00 100 1019.0
20170726064639 55 14 0.0 0.0 0.00 0.47 0.00 100 1019.0